Starlink 5957

operational
NORAD ID: 55995 Int'l Des: 2023-042 Owner: SPXS Country: US Constellation: starlink
LEOCIRCULAR

Über Starlink 5957

Beschreibung wird geladen...

Live-Position

3D-Globus wird geladen...

Nächste Überflüge

Höhenverlauf

Altitude vs Time

uPlot chart will show altitude changes over time

Zweizeiliger Elementsatz

1 55995U 23042K 25303.33335648 .02011423 00000-0 10776+0 0 9995
2 55995 43.0003 44.3588 0001760 295.7075 15.2022 15.11100197 5795
Epoch: 30. Okt. 2025 • Age: 15 hours

Aktueller Status

Höhe 529.8 km
Geschwindigkeit 7.60 km/s
Subsatellitenpunkt 43.14°N, 110.03°E
Startdatum 24. März 2023
Alter 2.6 years
Typ internet

Technische Details

Klassifizierung Payload
Masse 305.00 kg
Trockenmasse 290.00 kg
Gesamtmasse 305.00 kg
Länge 0.20 m
Durchmesser 2.80 m
Spannweite 9.00 m
Form Box + pan
Hersteller SPXS
Bus-Typ Starlink
Phasenstatus In Orbit
Besitzer/Staat SPXS/US

Große Konstellationen

Loading constellations...